Middlesboro-Bell County (1A6)

 

Airport Diagram
No Airport Diagram Available
Current Weather/Forecast (MVFR Conditions)
METAR K1A6 211315Z AUTO 00000KT 5SM BR OVC013 02/02 A2998 RMK AO2 T00230023
TAF

Airport Information

All Charts
General
Chart Name View
TAKEOFF MINIMUMS
ALTERNATE MINIMUMS
TAKEOFF MINIMUMS
ALTERNATE MINIMUMS

Approaches
Chart Name Download
RNAV (GPS)-A
RNAV (GPS)-A


Airport Statistics
Departures Arrivals Local
All Collected Stats since June 2016: 1 1 0
2021 Stats: 0 0 0
January Stats: 0 0 0

Inbound Traffic (Arrivals) - 0

No inbound traffic.


Outbound Traffic (Departures) - 0

No outbound traffic.


Local Traffic (Pattern) - 0

No local traffic.